Weather in Peresyp'

Russia / Krasnodar Krai     45°20′51″N   37°07′38″E
temp.,
°C
wind,
m/s
gust,
m/s
humid.,
%
clouds,
%
prec.,
mm/h
press.,
hPa
HPBL,
m
12 april, mon
mon1200:00+9ene2596100 3.9 1019259
03:00+9e2396100 4.1 1019122
06:00+9s3694100 0.3 1019372
09:00+10s578099 0.4 1020599
12:00+13s566495 0.0 10211035
15:00+11ssw6773100 0.0 1021504
18:00+10ssw577765 0.0 1022463
21:00+8ssw4791100 0.0 1023177
13 april, tue
tue1300:00+8s3791100 0.0 1023237
03:00+7s3493100 0.2 102279
06:00+8s3691100 0.0 1022227
09:00+11ssw447753 0.0 1023659
12:00+12ssw5572100 0.0 1022841
15:00+12ssw5568100 0.0 1023722
18:00+11ssw4573100 0.0 1022357
21:00+9ssw2286100 0.0 102265
14 april, wed
wed1400:00+8ssw118960 0.0 102110
03:00+9wsw118214 0.0 102023
06:00+7ese3491100 0.0 102068
09:00+11sse3476100 0.0 1019435
12:00+13ssw5566100 0.0 1019749
15:00+13ssw666199 0.0 1018608
18:00+11sw5673100 0.0 1018271
21:00+9ssw358389 0.0 101899
15 april, thu
thu1500:00+9se348293 0.0 101776
03:00+8ese22870 0.0 101631
06:00+8sse11830 0.0 101611
09:00+13sse246035 0.0 1016396
12:00+14sw5661100 0.0 1017565
15:00+13sw6770100 0.0 1017415
18:00+12sw56715 0.1 1016278
21:00+9sw4694100 0.1 1017135
16 april, fri
fri1600:00+9sw3593100 0.0 1016114
03:00+8wsw338520 0.0 101665
06:00+8ssw0184100 0.0 101615
09:00+8sw1194100 5.8 1017130
12:00+9nne2290100 3.7 1017275
15:00+9ne2191100 5.6 1018186
18:00+9nw2290100 0.1 1018239
21:00+8w2391100 0.3 1019216